Location: Peach Mountain Observatory
(42.3967°N, 83.9367°W)
Time: 06:46:20
(UTC-04:00)

deb Explorer IX - Pass Details

Date: 27 January 2020
Orbit: 547 x 1100 km, 38.8° (Epoch: 03 April)

Event Time Altitude Azimuth Distance (km) Brightness Sun altitude
Rises 03:53:30 0° 275° (W) 3,902 - -44.3°
Reaches altitude 10° 03:57:25 10° 256° (WSW) 2,904 - -43.6°
Maximum altitude 04:01:35 17° 220° (SW) 2,378 - -42.9°
Drops below altitude 10° 04:05:34 10° 183° (S) 2,736 - -42.2°
Sets 04:09:07 0° 163° (SSE) 3,578 - -41.5°
